Погода в Валлетте

Мальта     35°53′52″N   14°30′47″E
темп.,
°C
ветер,
м/с
пор.,
м/с
влажн.,
%
обл.,
%
осадки,
мм/ч
давл.,
гПа
погр.,
м
17 июня, чт
чт1723:00+22ю34660 0.0 1018287
02:00+22ю34670 0.0 1017275
05:00+22ю33680 0.0 1017242
08:00+22ююв33640 0.0 1018399
11:00+23юв44630 0.0 1019421
14:00+24ююв44605 0.0 1019287
17:00+24ююв44600 0.0 1018248
20:00+23ююв44675 0.0 1018243
18 июня, пт
пт1823:00+22ююв447284 0.0 1018262
02:00+22ю2270100 0.0 1018151
05:00+22юв44695 0.0 1017270
08:00+23юз336891 0.0 1019340
11:00+24вюв11614 0.0 1019222
14:00+25ююз12583 0.0 1018398
17:00+26юз235881 0.0 1017236
20:00+24ююв22675 0.0 101759
19 июня, сб
сб1923:00+23з22720 0.0 101821
02:00+23зюз34720 0.0 101773
05:00+23зсз34760 0.0 1016112
08:00+24зюз22700 0.0 101746
11:00+25з45640 0.0 1017177
14:00+25з34640 0.0 1016186
17:00+26зюз45590 0.0 1015129
20:00+25з34650 0.0 101453
20 июня, вс
вс2023:00+24з33680 0.0 101530
02:00+24з22695 0.0 101415
05:00+24зсз226716 0.0 101315
08:00+25з33620 0.0 101450
11:00+25сз34630 0.0 1014141
14:00+26ссз22630 0.0 1014140
17:00+27ю11610 0.0 1013108
20:00+27юз01630 0.0 101225
21 июня, пн
пн2123:00+26ююз33641 0.0 101219
02:00+25сз226826 0.0 101312
05:00+25ююв336952 0.0 101215
08:00+25ююз226717 0.0 101338
11:00+27юв1260100 0.0 101372
14:00+29ююв5656100 0.0 1013100
17:00+28ю675976 0.0 101276
20:00+27ююв8126353 0.0 1011111